When you browse on this site, cookies collect data to enhance your experience and personalize the content and advertising you see.
Visit our Privacy Policy to learn more. By continuing to use the site, you agree to this use of cookies and data.
  • In Spain
  • List of Countries
  • For 7 days
  • Water Temperature
  • Weather Map
  • Weather Widgets
  • user-avatar
    Login

    Hourly Weather Quito

    Today, 1 June, Monday

    Time Temperature Precipitation Wind Pressure Humidity
    00:00 +14°C° 0 mm 1 mps 624 mmHg 62%
    01:00 +13°C° 0 mm 1 mps 624 mmHg 65%
    02:00 +13°C° 0 mm 1 mps 624 mmHg 68%
    03:00 +12°C° 0 mm 1 mps 623 mmHg 71%
    04:00 +12°C° 0 mm 1 mps 623 mmHg 74%
    05:00 +12°C° 0 mm 1 mps 623 mmHg 73%
    06:00 +13°C° 0 mm 1 mps 624 mmHg 72%
    07:00 +13°C° 0 mm 1 mps 625 mmHg 72%
    08:00 +16°C° 0 mm 2 mps 625 mmHg 61%
    09:00 +19°C° 0 mm 3 mps 626 mmHg 50%
    10:00 +22°C° 0 mm 4 mps 627 mmHg 39%
    11:00 +23°C° 0 mm 4 mps 626 mmHg 37%
    12:00 +25°C° 0 mm 3 mps 626 mmHg 34%
    13:00 +26°C° 0 mm 3 mps 626 mmHg 31%
    14:00 +26°C° 0 mm 3 mps 625 mmHg 32%
    15:00 +26°C° 0 mm 3 mps 625 mmHg 32%
    16:00 +25°C° 0 mm 2 mps 624 mmHg 32%
    17:00 +23°C° 0 mm 2 mps 624 mmHg 38%
    18:00 +20°C° 0 mm 1 mps 624 mmHg 44%
    19:00 +15°C° 0 mm 0 mps 623 mmHg 50%
    20:00 +16°C° 0 mm 1 mps 624 mmHg 50%
    21:00 +16°C° 0 mm 1 mps 624 mmHg 50%
    22:00 +15°C° 0 mm 1 mps 624 mmHg 50%
    23:00 +15°C° 0 mm 1 mps 624 mmHg 58%

    Tomorrow, 2 June, Tuesday

    Time Temperature Precipitation Wind Pressure Humidity
    00:00 +14°C° 0 mm 1 mps 623 mmHg 65%
    01:00 +13°C° 0 mm 1 mps 623 mmHg 73%
    02:00 +13°C° 0 mm 1 mps 623 mmHg 75%
    03:00 +13°C° 0 mm 1 mps 623 mmHg 77%
    04:00 +13°C° 0 mm 1 mps 623 mmHg 79%
    05:00 +13°C° 0 mm 1 mps 623 mmHg 77%
    06:00 +14°C° 0 mm 1 mps 624 mmHg 74%
    07:00 +14°C° 0 mm 1 mps 624 mmHg 72%
    08:00 +17°C° 0 mm 2 mps 625 mmHg 62%
    09:00 +20°C° 0 mm 3 mps 626 mmHg 51%
    10:00 +22°C° 0 mm 3 mps 626 mmHg 41%
    11:00 +25°C° 0 mm 3 mps 626 mmHg 37%
    12:00 +26°C° 0 mm 2 mps 626 mmHg 33%
    13:00 +27°C° 0 mm 2 mps 626 mmHg 28%
    14:00 +27°C° 0 mm 2 mps 625 mmHg 29%
    15:00 +26°C° 0 mm 2 mps 625 mmHg 29%
    16:00 +26°C° 0 mm 1 mps 624 mmHg 29%
    17:00 +23°C° 0 mm 1 mps 624 mmHg 33%
    18:00 +21°C° 0 mm 1 mps 623 mmHg 38%
    19:00 +19°C° 0 mm 1 mps 623 mmHg 42%
    20:00 +19°C° 0 mm 1 mps 623 mmHg 41%
    21:00 +19°C° 0 mm 1 mps 624 mmHg 40%
    22:00 +19°C° 0 mm 1 mps 624 mmHg 40%
    23:00 +18°C° 0 mm 1 mps 624 mmHg 43%

    Day after tomorrow, 3 June, Wednesday

    Time Temperature Precipitation Wind Pressure Humidity
    00:00 +18°C° 0 mm 1 mps 624 mmHg 47%
    01:00 +16°C° 0 mm 1 mps 623 mmHg 50%
    02:00 +15°C° 0 mm 1 mps 623 mmHg 54%
    03:00 +14°C° 0 mm 1 mps 622 mmHg 58%
    04:00 +13°C° 0 mm 1 mps 622 mmHg 62%
    05:00 +14°C° 0 mm 1 mps 622 mmHg 62%
    06:00 +14°C° 0 mm 1 mps 623 mmHg 62%
    07:00 +14°C° 0 mm 1 mps 623 mmHg 62%
    08:00 +17°C° 0 mm 2 mps 624 mmHg 53%
    09:00 +20°C° 0 mm 3 mps 625 mmHg 44%
    10:00 +24°C° 0 mm 3 mps 626 mmHg 35%
    11:00 +25°C° 0 mm 3 mps 625 mmHg 33%
    12:00 +26°C° 0 mm 2 mps 625 mmHg 31%
    13:00 +27°C° 0 mm 2 mps 625 mmHg 28%
    14:00 +26°C° 0 mm 2 mps 624 mmHg 29%
    15:00 +26°C° 0 mm 1 mps 624 mmHg 31%
    16:00 +25°C° 0 mm 1 mps 623 mmHg 32%
    17:00 +23°C° 0 mm 1 mps 623 mmHg 35%
    18:00 +22°C° 0 mm 1 mps 623 mmHg 39%
    19:00 +18°C° 0 mm 0 mps 623 mmHg 42%
    20:00 +18°C° 0 mm 0 mps 623 mmHg 42%
    21:00 +17°C° 0 mm 0 mps 623 mmHg 42%
    22:00 +17°C° 0 mm 0 mps 623 mmHg 42%
    23:00 +17°C° 0 mm 0 mps 623 mmHg 43%

    4 June, Thursday

    Time Temperature Precipitation Wind Pressure Humidity
    00:00 +16°C° 0 mm 0 mps 623 mmHg 43%
    01:00 +18°C° 0 mm 1 mps 623 mmHg 43%
    02:00 +16°C° 0 mm 1 mps 623 mmHg 46%
    03:00 +15°C° 0 mm 1 mps 622 mmHg 48%
    04:00 +15°C° 0 mm 1 mps 622 mmHg 50%
    05:00 +15°C° 0 mm 1 mps 623 mmHg 51%
    06:00 +14°C° 0 mm 0 mps 623 mmHg 52%
    07:00 +13°C° 0 mm 0 mps 624 mmHg 54%
    08:00 +18°C° 0 mm 1 mps 624 mmHg 46%
    09:00 +20°C° 0 mm 2 mps 625 mmHg 38%
    10:00 +24°C° 0 mm 3 mps 626 mmHg 31%
    11:00 +25°C° 0 mm 3 mps 626 mmHg 29%
    12:00 +26°C° 0 mm 2 mps 625 mmHg 27%
    13:00 +28°C° 0 mm 2 mps 625 mmHg 25%
    14:00 +27°C° 0 mm 2 mps 625 mmHg 26%
    15:00 +27°C° 0 mm 2 mps 624 mmHg 26%
    16:00 +27°C° 0 mm 1 mps 624 mmHg 26%
    17:00 +24°C° 0 mm 1 mps 623 mmHg 33%
    18:00 +21°C° 0 mm 1 mps 623 mmHg 40%
    19:00 +18°C° 0 mm 1 mps 622 mmHg 46%
    20:00 +15°C° 0 mm 0 mps 622 mmHg 47%
    21:00 +15°C° 0 mm 0 mps 623 mmHg 47%
    22:00 +14°C° 0 mm 0 mps 623 mmHg 47%
    23:00 +14°C° 0 mm 0 mps 623 mmHg 48%

    5 June, Friday

    Time Temperature Precipitation Wind Pressure Humidity
    00:00 +14°C° 0 mm 0 mps 623 mmHg 49%
    01:00 +13°C° 0 mm 0 mps 623 mmHg 49%
    02:00 +13°C° 0 mm 0 mps 623 mmHg 51%
    03:00 +13°C° 0 mm 1 mps 623 mmHg 52%
    04:00 +13°C° 0 mm 1 mps 622 mmHg 54%
    05:00 +13°C° 0 mm 1 mps 623 mmHg 55%
    06:00 +13°C° 0 mm 1 mps 623 mmHg 55%
    07:00 +13°C° 0 mm 1 mps 624 mmHg 55%
    08:00 +16°C° 0 mm 2 mps 625 mmHg 47%
    09:00 +20°C° 0 mm 3 mps 626 mmHg 39%
    10:00 +24°C° 0 mm 3 mps 627 mmHg 31%
    11:00 +25°C° 0 mm 3 mps 627 mmHg 29%
    12:00 +26°C° 0 mm 3 mps 626 mmHg 27%
    13:00 +28°C° 0 mm 2 mps 626 mmHg 24%
    14:00 +27°C° 0 mm 2 mps 626 mmHg 24%
    15:00 +27°C° 0 mm 2 mps 625 mmHg 24%
    16:00 +27°C° 0 mm 1 mps 625 mmHg 24%
    17:00 +24°C° 0 mm 1 mps 624 mmHg 29%
    18:00 +21°C° 0 mm 1 mps 624 mmHg 34%
    19:00 +19°C° 0 mm 1 mps 623 mmHg 39%
    20:00 +18°C° 0 mm 1 mps 624 mmHg 39%
    21:00 +18°C° 0 mm 1 mps 624 mmHg 38%
    22:00 +16°C° 0 mm 1 mps 624 mmHg 38%
    23:00 +16°C° 0 mm 1 mps 624 mmHg 42%

    6 June, Saturday

    Time Temperature Precipitation Wind Pressure Humidity
    00:00 +15°C° 0 mm 1 mps 623 mmHg 45%
    01:00 +14°C° 0 mm 1 mps 623 mmHg 48%
    02:00 +13°C° 0 mm 1 mps 623 mmHg 50%
    03:00 +13°C° 0 mm 1 mps 623 mmHg 53%
    04:00 +12°C° 0 mm 1 mps 622 mmHg 55%
    05:00 +13°C° 0 mm 1 mps 623 mmHg 55%
    06:00 +13°C° 0 mm 1 mps 623 mmHg 55%
    07:00 +13°C° 0 mm 1 mps 624 mmHg 55%
    08:00 +16°C° 0 mm 2 mps 625 mmHg 47%
    09:00 +19°C° 0 mm 3 mps 626 mmHg 38%
    10:00 +22°C° 0 mm 4 mps 626 mmHg 30%
    11:00 +24°C° 0 mm 3 mps 626 mmHg 28%
    12:00 +26°C° 0 mm 3 mps 626 mmHg 26%
    13:00 +27°C° 0 mm 3 mps 625 mmHg 24%
    14:00 +27°C° 0 mm 2 mps 625 mmHg 24%
    15:00 +26°C° 0 mm 2 mps 625 mmHg 24%
    16:00 +26°C° 0 mm 2 mps 624 mmHg 24%
    17:00 +23°C° 0 mm 1 mps 624 mmHg 29%
    18:00 +20°C° 0 mm 1 mps 623 mmHg 35%
    19:00 +16°C° 0 mm 1 mps 623 mmHg 40%
    20:00 +15°C° 0 mm 1 mps 623 mmHg 41%
    21:00 +15°C° 0 mm 1 mps 623 mmHg 42%
    22:00 +14°C° 0 mm 1 mps 623 mmHg 43%
    23:00 +14°C° 0 mm 1 mps 623 mmHg 44%
    Show more